Location: Aurora Center
(43.5271°N, 98.5894°W)
Time: 02:18:58
(UTC-05:00)

Envisat - Pass Details

Date: 26 June 2024
Orbit: 762 x 764 km, 98.3° (Epoch: 13 July)

Event Time Altitude Azimuth Distance (km) Brightness Sun altitude
Rises 03:30:51 0° 32° (NNE) 3,233 8.0 -18.2°
Reaches altitude 10° 03:34:13 10° 55° (NE) 2,301 6.4 -18.0°
Maximum altitude 03:37:03 15° 90° (E) 1,973 5.5 -17.7°
Drops below altitude 10° 03:39:53 10° 124° (SE) 2,292 5.4 -17.5°
Enters shadow 03:42:54 - 146° (SE) 3,118 5.9 -17.2°
